Location: Unspecified
(43.4680°N, 87.1740°E)
Time: 20:28:33
(UTC+00:00)

CZ-2D R/B - Pass Details

Date: 27 July 2021
Orbit: 553 x 637 km, 97.9° (Epoch: 20 September)

Event Time Altitude Azimuth Distance (km) Brightness Sun altitude
Rises 20:49:17 0° 27° (NNE) 2,758 8.5 -18.5°
Reaches altitude 10° 20:51:50 10° 44° (NE) 1,866 7.3 -18.2°
Maximum altitude 20:54:57 21° 95° (E) 1,297 5.6 -17.9°
Drops below altitude 10° 20:58:05 10° 145° (SE) 1,886 5.9 -17.5°
Enters shadow 20:58:58 - 152° (SSE) 2,175 6.1 -17.4°
